GPS BIIF-9 (40534 NORAD) Tracking and Keplerian Element Data

This shows tracking and keplerian element data for the satellite.

Feedback or suggestion? Click here.




ElementValue
Catalog40534
NameGPS BIIF-9
Epoch Orbit4720
Epoch Day267.97817958
Epoch Year2021
RAAN275.6883
Inclination53.8831
Eccentricity0.0060901
Argument of Perigee14.7326
Mean Anonmoly345.4579
Mean Motion2.00568708
Decay Rate-4E-08
L11 40534U 15013A 21267.97817958 -.00000004 00000-0 00000-0 0 9993
L22 40534 53.8831 275.6883 0060901 14.7326 345.4579 2.00568708 47200

Live tracking and technical data element details for GPS BIIF-9 (NORAD 40534). GPS BIIF-9 can be tracked NOW for your location showing map with azimuth and elevation plus other details from your city location.

Track the satellite on the map from your city or location and see movement details for azimuth, elevation, latitude, longitude, range, height, and movement on the map or in text.







IsCatalogInMostPopularTable: catalog: 40534, numindb: 564
Update: records affected: 1



GetName: 40534 GPS BIIF-9

Hit Count: updated at: Tue, 28 Sep 2021 17:08:55 GMT